iso_date,epoch_date,Year,Hour,Min,DOY,POS_DOY,Lat,Lon,BP,Ts,Ta,has_bp,has_ts,has_ta,BuoyID,Buoy_Type,Buoy_Owner,Logistics,Hemisphere
2016-01-04T13:00:28Z,1451912429,2016,13,0,4.542,4.552,-56.38083,-65.6125,999.3,6.5,-999.0,yes,yes,no,132756,BD2A3,AOML,Brazilian_NAVY,South
2016-01-04T13:59:31Z,1451915971,2016,14,0,4.583,4.556,-56.37889,-65.61667,999.8,6.55,-999.0,yes,yes,no,132756,BD2A3,AOML,Brazilian_NAVY,South
2016-01-04T16:00:28Z,1451923229,2016,16,0,4.667,4.622,-56.37139,-65.5875,1000.7,6.55,-999.0,yes,yes,no,132756,BD2A3,AOML,Brazilian_NAVY,South
2016-01-04T16:59:31Z,1451926771,2016,17,0,4.708,4.756,-56.36417,-65.53083,1000.8,6.6,-999.0,yes,yes,no,132756,BD2A3,AOML,Brazilian_NAVY,South
2016-01-04T18:00:00Z,1451930400,2016,18,0,4.75,4.756,-56.36417,-65.53083,1000.4,6.6,-999.0,yes,yes,no,132756,BD2A3,AOML,Brazilian_NAVY,South
2016-01-05T15:00:00Z,1452006000,2016,15,0,5.625,5.608,-56.11861,-65.11667,1000.0,6.4,-999.0,yes,yes,no,132756,BD2A3,AOML,Brazilian_NAVY,South
2016-01-05T16:00:28Z,1452009629,2016,16,0,5.667,5.608,-56.11861,-65.11667,999.9,6.45,-999.0,yes,yes,no,132756,BD2A3,AOML,Brazilian_NAVY,South
2016-01-05T19:00:28Z,1452020429,2016,19,0,5.792,5.804,-56.03389,-65.05139,999.9,6.45,-999.0,yes,yes,no,132756,BD2A3,AOML,Brazilian_NAVY,South
2016-01-05T19:59:31Z,1452023971,2016,20,0,5.833,5.82,-56.02722,-65.06,1000.0,6.45,-999.0,yes,yes,no,132756,BD2A3,AOML,Brazilian_NAVY,South
2016-01-05T21:00:00Z,1452027600,2016,21,0,5.875,5.872,-56.005,-65.04194,999.5,6.45,-999.0,yes,yes,no,132756,BD2A3,AOML,Brazilian_NAVY,South
2016-01-05T22:00:28Z,1452031229,2016,22,0,5.917,5.902,-55.99417,-65.04444,999.8,6.4,-999.0,yes,yes,no,132756,BD2A3,AOML,Brazilian_NAVY,South
2016-01-05T22:59:31Z,1452034771,2016,23,0,5.958,5.962,-55.96611,-65.01611,1000.0,6.4,-999.0,yes,yes,no,132756,BD2A3,AOML,Brazilian_NAVY,South
2016-01-06T00:00:00Z,1452038400,2016,0,0,6.0,6.031,-55.93306,-64.99444,1000.7,6.35,-999.0,yes,yes,no,132756,BD2A3,AOML,Brazilian_NAVY,South
2016-01-06T01:00:28Z,1452042029,2016,1,0,6.042,6.042,-55.93556,-64.99611,1001.7,6.35,-999.0,yes,yes,no,132756,BD2A3,AOML,Brazilian_NAVY,South
2016-01-06T01:59:31Z,1452045571,2016,2,0,6.083,6.076,-55.91306,-64.98417,1002.9,6.35,-999.0,yes,yes,no,132756,BD2A3,AOML,Brazilian_NAVY,South
2016-01-06T03:00:00Z,1452049200,2016,3,0,6.125,6.146,-55.86889,-64.97222,1004.1,6.3,-999.0,yes,yes,no,132756,BD2A3,AOML,Brazilian_NAVY,South
2016-01-06T04:00:28Z,1452052829,2016,4,0,6.167,6.162,-55.84944,-64.98417,1004.9,6.3,-999.0,yes,yes,no,132756,BD2A3,AOML,Brazilian_NAVY,South
2016-01-06T04:59:31Z,1452056371,2016,5,0,6.208,6.215,-55.81889,-64.98333,1005.8,6.3,-999.0,yes,yes,no,132756,BD2A3,AOML,Brazilian_NAVY,South
2016-01-06T06:00:00Z,1452060000,2016,6,0,6.25,6.234,-55.80778,-64.99556,1006.6,6.25,-999.0,yes,yes,no,132756,BD2A3,AOML,Brazilian_NAVY,South
2016-01-06T07:00:28Z,1452063629,2016,7,0,6.292,6.305,-55.77139,-65.03028,1007.5,6.25,-999.0,yes,yes,no,132756,BD2A3,AOML,Brazilian_NAVY,South
2016-01-06T07:59:31Z,1452067171,2016,8,0,6.333,6.305,-55.775,-65.02722,1007.8,6.25,-999.0,yes,yes,no,132756,BD2A3,AOML,Brazilian_NAVY,South
2016-01-06T09:00:00Z,1452070800,2016,9,0,6.375,6.374,-55.76028,-65.01917,1007.9,6.25,-999.0,yes,yes,no,132756,BD2A3,AOML,Brazilian_NAVY,South
2016-01-06T10:00:28Z,1452074429,2016,10,0,6.417,6.444,-55.73056,-65.07972,1007.8,6.2,-999.0,yes,yes,no,132756,BD2A3,AOML,Brazilian_NAVY,South
2016-01-06T10:59:31Z,1452077971,2016,11,0,6.458,6.451,-55.73222,-65.06861,1007.6,6.2,-999.0,yes,yes,no,132756,BD2A3,AOML,Brazilian_NAVY,South
2016-01-06T12:00:00Z,1452081600,2016,12,0,6.5,6.512,-55.71861,-65.07694,1007.2,6.2,-999.0,yes,yes,no,132756,BD2A3,AOML,Brazilian_NAVY,South
2016-01-06T13:00:28Z,1452085229,2016,13,0,6.542,6.556,-55.70306,-65.07167,1006.6,6.2,-999.0,yes,yes,no,132756,BD2A3,AOML,Brazilian_NAVY,South
2016-01-06T13:59:31Z,1452088771,2016,14,0,6.583,6.592,-55.69139,-65.06333,1006.0,6.2,-999.0,yes,yes,no,132756,BD2A3,AOML,Brazilian_NAVY,South
2016-01-06T15:00:00Z,1452092400,2016,15,0,6.625,6.626,-55.68083,-65.09806,1005.5,6.2,-999.0,yes,yes,no,132756,BD2A3,AOML,Brazilian_NAVY,South
2016-01-06T16:00:28Z,1452096029,2016,16,0,6.667,6.626,-55.68083,-65.09806,1005.4,6.2,-999.0,yes,yes,no,132756,BD2A3,AOML,Brazilian_NAVY,South
2016-01-06T16:59:31Z,1452099571,2016,17,0,6.708,6.74,-55.64333,-65.07361,1005.4,6.2,-999.0,yes,yes,no,132756,BD2A3,AOML,Brazilian_NAVY,South
2016-01-06T18:00:00Z,1452103200,2016,18,0,6.75,6.74,-55.64333,-65.07361,1005.3,6.2,-999.0,yes,yes,no,132756,BD2A3,AOML,Brazilian_NAVY,South
2016-01-06T19:00:28Z,1452106829,2016,19,0,6.792,6.81,-55.59972,-65.06306,1005.4,6.2,-999.0,yes,yes,no,132756,BD2A3,AOML,Brazilian_NAVY,South
2016-01-06T19:59:31Z,1452110371,2016,20,0,6.833,6.851,-55.58,-65.04861,1005.2,6.25,-999.0,yes,yes,no,132756,BD2A3,AOML,Brazilian_NAVY,South
2016-01-06T21:00:00Z,1452114000,2016,21,0,6.875,6.881,-55.56472,-65.06222,1005.2,6.25,-999.0,yes,yes,no,132756,BD2A3,AOML,Brazilian_NAVY,South
2016-01-06T22:00:28Z,1452117629,2016,22,0,6.917,6.92,-55.55417,-65.08028,1005.1,6.25,-999.0,yes,yes,no,132756,BD2A3,AOML,Brazilian_NAVY,South
2016-01-06T22:59:31Z,1452121171,2016,23,0,6.958,6.955,-55.54833,-65.085,1005.0,6.25,-999.0,yes,yes,no,132756,BD2A3,AOML,Brazilian_NAVY,South
2016-01-07T00:00:00Z,1452124800,2016,0,0,7.0,7.023,-55.53222,-65.09333,1004.7,6.25,-999.0,yes,yes,no,132756,BD2A3,AOML,Brazilian_NAVY,South
2016-01-07T01:00:28Z,1452128429,2016,1,0,7.042,7.023,-55.53222,-65.09333,1004.3,6.25,-999.0,yes,yes,no,132756,BD2A3,AOML,Brazilian_NAVY,South
2016-01-07T01:59:31Z,1452131971,2016,2,0,7.083,7.1,-55.52528,-65.10806,1003.6,6.25,-999.0,yes,yes,no,132756,BD2A3,AOML,Brazilian_NAVY,South
2016-01-07T03:00:00Z,1452135600,2016,3,0,7.125,7.13,-55.51917,-65.095,1002.9,6.25,-999.0,yes,yes,no,132756,BD2A3,AOML,Brazilian_NAVY,South
2016-01-07T04:00:28Z,1452139229,2016,4,0,7.167,7.168,-55.51306,-65.1025,1001.6,6.25,-999.0,yes,yes,no,132756,BD2A3,AOML,Brazilian_NAVY,South
2016-01-07T04:59:31Z,1452142771,2016,5,0,7.208,7.222,-55.50056,-65.11778,1000.4,6.25,-999.0,yes,yes,no,132756,BD2A3,AOML,Brazilian_NAVY,South
2016-01-07T06:00:00Z,1452146400,2016,6,0,7.25,7.222,-55.50583,-65.10528,999.3,6.25,-999.0,yes,yes,no,132756,BD2A3,AOML,Brazilian_NAVY,South
2016-01-07T07:00:28Z,1452150029,2016,7,0,7.292,7.293,-55.5075,-65.09778,998.2,6.25,-999.0,yes,yes,no,132756,BD2A3,AOML,Brazilian_NAVY,South
2016-01-07T07:59:31Z,1452153571,2016,8,0,7.333,7.365,-55.46889,-65.08167,997.8,6.25,-999.0,yes,yes,no,132756,BD2A3,AOML,Brazilian_NAVY,South
2016-01-07T09:00:00Z,1452157200,2016,9,0,7.375,7.365,-55.47139,-65.07944,997.5,6.25,-999.0,yes,yes,no,132756,BD2A3,AOML,Brazilian_NAVY,South
2016-01-07T10:00:28Z,1452160829,2016,10,0,7.417,7.422,-55.45667,-65.06889,997.2,6.25,-999.0,yes,yes,no,132756,BD2A3,AOML,Brazilian_NAVY,South
2016-01-07T10:59:31Z,1452164371,2016,11,0,7.458,7.472,-55.43667,-65.06778,996.5,6.25,-999.0,yes,yes,no,132756,BD2A3,AOML,Brazilian_NAVY,South
2016-01-07T12:00:00Z,1452168000,2016,12,0,7.5,7.509,-55.42111,-65.08333,996.2,6.25,-999.0,yes,yes,no,132756,BD2A3,AOML,Brazilian_NAVY,South
2016-01-07T13:00:28Z,1452171629,2016,13,0,7.542,7.54,-55.41722,-65.07833,995.7,6.25,-999.0,yes,yes,no,132756,BD2A3,AOML,Brazilian_NAVY,South
2016-01-07T13:59:31Z,1452175171,2016,14,0,7.583,7.579,-55.41278,-65.09194,995.0,6.25,-999.0,yes,yes,no,132756,BD2A3,AOML,Brazilian_NAVY,South
2016-01-07T15:00:00Z,1452178800,2016,15,0,7.625,7.61,-55.40417,-65.10444,994.7,6.25,-999.0,yes,yes,no,132756,BD2A3,AOML,Brazilian_NAVY,South
2016-01-07T16:00:28Z,1452182429,2016,16,0,7.667,7.61,-55.40417,-65.10444,994.1,6.25,-999.0,yes,yes,no,132756,BD2A3,AOML,Brazilian_NAVY,South
2016-01-07T16:59:31Z,1452185971,2016,17,0,7.708,7.61,-55.40417,-65.10444,994.1,6.25,-999.0,yes,yes,no,132756,BD2A3,AOML,Brazilian_NAVY,South
2016-01-07T18:00:00Z,1452189600,2016,18,0,7.75,7.803,-55.37278,-65.11639,993.5,6.25,-999.0,yes,yes,no,132756,BD2A3,AOML,Brazilian_NAVY,South
2016-01-07T19:00:28Z,1452193229,2016,19,0,7.792,7.803,-55.37278,-65.11639,993.6,6.25,-999.0,yes,yes,no,132756,BD2A3,AOML,Brazilian_NAVY,South
2016-01-07T19:59:31Z,1452196771,2016,20,0,7.833,7.803,-55.37444,-65.12056,993.7,6.25,-999.0,yes,yes,no,132756,BD2A3,AOML,Brazilian_NAVY,South
2016-01-07T21:00:00Z,1452200400,2016,21,0,7.875,7.874,-55.35944,-65.11389,993.9,6.25,-999.0,yes,yes,no,132756,BD2A3,AOML,Brazilian_NAVY,South
2016-01-07T22:00:28Z,1452204029,2016,22,0,7.917,7.938,-55.34667,-65.10472,994.5,6.2,-999.0,yes,yes,no,132756,BD2A3,AOML,Brazilian_NAVY,South
2016-01-07T22:59:31Z,1452207571,2016,23,0,7.958,7.944,-55.34806,-65.12583,995.1,6.2,-999.0,yes,yes,no,132756,BD2A3,AOML,Brazilian_NAVY,South
2016-01-08T00:00:00Z,1452211200,2016,0,0,8.0,8.006,-55.32528,-65.08972,996.1,6.2,-999.0,yes,yes,no,132756,BD2A3,AOML,Brazilian_NAVY,South
2016-01-08T01:00:28Z,1452214829,2016,1,0,8.042,8.046,-55.32111,-65.10306,997.3,6.15,-999.0,yes,yes,no,132756,BD2A3,AOML,Brazilian_NAVY,South
2016-01-08T01:59:31Z,1452218371,2016,2,0,8.083,8.015,-55.32306,-65.09917,999.1,6.15,-999.0,yes,yes,no,132756,BD2A3,AOML,Brazilian_NAVY,South
2016-01-08T03:00:00Z,1452222000,2016,3,0,8.125,8.147,-55.28222,-65.10111,999.8,6.15,-999.0,yes,yes,no,132756,BD2A3,AOML,Brazilian_NAVY,South
2016-01-08T04:00:28Z,1452225629,2016,4,0,8.167,8.154,-55.27944,-65.11111,1000.8,6.15,-999.0,yes,yes,no,132756,BD2A3,AOML,Brazilian_NAVY,South
2016-01-08T04:59:31Z,1452229171,2016,5,0,8.208,8.154,-55.27944,-65.11111,1001.8,6.1,-999.0,yes,yes,no,132756,BD2A3,AOML,Brazilian_NAVY,South
2016-01-08T06:00:00Z,1452232800,2016,6,0,8.25,8.277,-55.24306,-65.18556,1002.8,6.1,-999.0,yes,yes,no,132756,BD2A3,AOML,Brazilian_NAVY,South
2016-01-08T07:00:28Z,1452236429,2016,7,0,8.292,8.288,-55.25667,-65.18,1003.9,6.1,-999.0,yes,yes,no,132756,BD2A3,AOML,Brazilian_NAVY,South
2016-01-08T07:59:31Z,1452239971,2016,8,0,8.333,8.347,-55.25806,-65.19444,1005.4,6.1,-999.0,yes,yes,no,132756,BD2A3,AOML,Brazilian_NAVY,South
2016-01-08T09:00:00Z,1452243600,2016,9,0,8.375,8.356,-55.26083,-65.19278,1006.8,6.1,-999.0,yes,yes,no,132756,BD2A3,AOML,Brazilian_NAVY,South
2016-01-08T10:00:28Z,1452247229,2016,10,0,8.417,8.416,-55.26278,-65.20028,1007.6,6.05,-999.0,yes,yes,no,132756,BD2A3,AOML,Brazilian_NAVY,South
2016-01-08T10:59:31Z,1452250771,2016,11,0,8.458,8.427,-55.26639,-65.20028,1008.5,6.05,-999.0,yes,yes,no,132756,BD2A3,AOML,Brazilian_NAVY,South
2016-01-08T12:00:00Z,1452254400,2016,12,0,8.5,8.494,-55.26139,-65.21639,1009.1,6.05,-999.0,yes,yes,no,132756,BD2A3,AOML,Brazilian_NAVY,South
2016-01-08T13:00:28Z,1452258029,2016,13,0,8.542,8.538,-55.26528,-65.21472,1009.4,6.05,-999.0,yes,yes,no,132756,BD2A3,AOML,Brazilian_NAVY,South
2016-01-08T13:59:31Z,1452261571,2016,14,0,8.583,8.597,-55.24833,-65.2125,1009.6,6.05,-999.0,yes,yes,no,132756,BD2A3,AOML,Brazilian_NAVY,South
2016-01-08T15:00:00Z,1452265200,2016,15,0,8.625,8.597,-55.24833,-65.2125,1010.2,6.05,-999.0,yes,yes,no,132756,BD2A3,AOML,Brazilian_NAVY,South
2016-01-08T16:00:28Z,1452268829,2016,16,0,8.667,8.597,-55.24833,-65.2125,1010.6,6.05,-999.0,yes,yes,no,132756,BD2A3,AOML,Brazilian_NAVY,South
2016-01-08T16:59:31Z,1452272371,2016,17,0,8.708,8.794,-55.23222,-65.24778,1011.0,6.05,-999.0,yes,yes,no,132756,BD2A3,AOML,Brazilian_NAVY,South
2016-01-08T18:00:00Z,1452276000,2016,18,0,8.75,8.794,-55.22694,-65.2375,1011.0,6.05,-999.0,yes,yes,no,132756,BD2A3,AOML,Brazilian_NAVY,South
2016-01-08T19:00:28Z,1452279629,2016,19,0,8.792,8.794,-55.22694,-65.2375,1011.3,6.05,-999.0,yes,yes,no,132756,BD2A3,AOML,Brazilian_NAVY,South
2016-01-08T19:59:31Z,1452283171,2016,20,0,8.833,8.808,-55.23361,-65.24111,1011.5,6.05,-999.0,yes,yes,no,132756,BD2A3,AOML,Brazilian_NAVY,South
2016-01-08T21:00:00Z,1452286800,2016,21,0,8.875,8.876,-55.22667,-65.24083,1012.0,6.05,-999.0,yes,yes,no,132756,BD2A3,AOML,Brazilian_NAVY,South
2016-01-08T22:00:28Z,1452290429,2016,22,0,8.917,8.919,-55.22389,-65.24806,1012.0,6.1,-999.0,yes,yes,no,132756,BD2A3,AOML,Brazilian_NAVY,South
2016-01-08T22:59:31Z,1452293971,2016,23,0,8.958,8.947,-55.22278,-65.24444,1012.2,6.1,-999.0,yes,yes,no,132756,BD2A3,AOML,Brazilian_NAVY,South
2016-01-09T00:00:00Z,1452297600,2016,0,0,9.0,9.006,-55.22278,-65.25333,1012.3,6.1,-999.0,yes,yes,no,132756,BD2A3,AOML,Brazilian_NAVY,South
2016-01-09T01:00:28Z,1452301229,2016,1,0,9.042,9.006,-55.2225,-65.24611,1011.6,6.1,-999.0,yes,yes,no,132756,BD2A3,AOML,Brazilian_NAVY,South
2016-01-09T01:59:31Z,1452304771,2016,2,0,9.083,9.071,-55.22389,-65.24306,1011.8,6.1,-999.0,yes,yes,no,132756,BD2A3,AOML,Brazilian_NAVY,South
2016-01-09T03:00:00Z,1452308400,2016,3,0,9.125,9.14,-55.22222,-65.21972,1011.3,6.1,-999.0,yes,yes,no,132756,BD2A3,AOML,Brazilian_NAVY,South
2016-01-09T04:00:28Z,1452312029,2016,4,0,9.167,9.172,-55.22444,-65.22722,1010.9,6.1,-999.0,yes,yes,no,132756,BD2A3,AOML,Brazilian_NAVY,South
2016-01-09T04:59:31Z,1452315571,2016,5,0,9.208,9.208,-55.22139,-65.21333,1009.5,6.1,-999.0,yes,yes,no,132756,BD2A3,AOML,Brazilian_NAVY,South
2016-01-09T06:00:00Z,1452319200,2016,6,0,9.25,9.277,-55.21444,-65.19722,1009.1,6.15,-999.0,yes,yes,no,132756,BD2A3,AOML,Brazilian_NAVY,South
2016-01-09T07:00:28Z,1452322829,2016,7,0,9.292,9.281,-55.21556,-65.19417,1008.3,6.1,-999.0,yes,yes,no,132756,BD2A3,AOML,Brazilian_NAVY,South
2016-01-09T07:59:31Z,1452326371,2016,8,0,9.333,9.281,-55.21556,-65.19417,1006.6,6.1,-999.0,yes,yes,no,132756,BD2A3,AOML,Brazilian_NAVY,South
2016-01-09T09:00:00Z,1452330000,2016,9,0,9.375,9.378,-55.20278,-65.18556,1005.9,6.35,-999.0,yes,yes,no,132756,BD2A3,AOML,Brazilian_NAVY,South
2016-01-09T10:00:28Z,1452333629,2016,10,0,9.417,9.419,-55.19889,-65.16056,1004.7,6.85,-999.0,yes,yes,no,132756,BD2A3,AOML,Brazilian_NAVY,South
2016-01-09T10:59:31Z,1452337171,2016,11,0,9.458,9.449,-55.19083,-65.14444,1002.8,6.7,-999.0,yes,yes,no,132756,BD2A3,AOML,Brazilian_NAVY,South
2016-01-09T12:00:00Z,1452340800,2016,12,0,9.5,9.51,-55.18306,-65.15222,1001.1,6.75,-999.0,yes,yes,no,132756,BD2A3,AOML,Brazilian_NAVY,South
2016-01-09T13:00:28Z,1452344429,2016,13,0,9.542,9.549,-55.18,-65.15139,999.4,6.95,-999.0,yes,yes,no,132756,BD2A3,AOML,Brazilian_NAVY,South
2016-01-09T13:59:31Z,1452347971,2016,14,0,9.583,9.583,-55.17583,-65.13833,997.9,6.7,-999.0,yes,yes,no,132756,BD2A3,AOML,Brazilian_NAVY,South
2016-01-09T15:00:00Z,1452351600,2016,15,0,9.625,9.619,-55.17028,-65.13556,995.9,6.75,-999.0,yes,yes,no,132756,BD2A3,AOML,Brazilian_NAVY,South
2016-01-09T16:00:28Z,1452355229,2016,16,0,9.667,9.619,-55.17028,-65.13556,994.4,7.3,-999.0,yes,yes,no,132756,BD2A3,AOML,Brazilian_NAVY,South
2016-01-09T16:59:31Z,1452358771,2016,17,0,9.708,9.619,-55.17028,-65.13556,993.2,7.0,-999.0,yes,yes,no,132756,BD2A3,AOML,Brazilian_NAVY,South
2016-01-09T18:00:00Z,1452362400,2016,18,0,9.75,9.619,-55.17028,-65.13556,992.1,6.7,-999.0,yes,yes,no,132756,BD2A3,AOML,Brazilian_NAVY,South
2016-01-09T19:00:28Z,1452366029,2016,19,0,9.792,9.856,-55.13833,-64.98222,991.3,7.2,-999.0,yes,yes,no,132756,BD2A3,AOML,Brazilian_NAVY,South
2016-01-09T19:59:31Z,1452369571,2016,20,0,9.833,9.856,-55.14167,-64.98361,990.9,6.8,-999.0,yes,yes,no,132756,BD2A3,AOML,Brazilian_NAVY,South
2016-01-09T21:00:00Z,1452373200,2016,21,0,9.875,9.858,-55.13694,-64.98778,990.2,6.8,-999.0,yes,yes,no,132756,BD2A3,AOML,Brazilian_NAVY,South
2016-01-09T22:00:28Z,1452376829,2016,22,0,9.917,9.924,-55.1125,-64.98583,989.9,6.65,-999.0,yes,yes,no,132756,BD2A3,AOML,Brazilian_NAVY,South
2016-01-09T22:59:31Z,1452380371,2016,23,0,9.958,9.972,-55.09111,-64.96861,989.6,6.4,-999.0,yes,yes,no,132756,BD2A3,AOML,Brazilian_NAVY,South
2016-01-10T00:00:00Z,1452384000,2016,0,0,10.0,9.999,-55.08139,-64.98833,989.4,6.3,-999.0,yes,yes,no,132756,BD2A3,AOML,Brazilian_NAVY,South
2016-01-10T01:00:28Z,1452387629,2016,1,0,10.042,10.042,-55.09028,-64.97972,989.3,7.1,-999.0,yes,yes,no,132756,BD2A3,AOML,Brazilian_NAVY,South
2016-01-10T01:59:31Z,1452391171,2016,2,0,10.083,10.088,-55.09611,-64.93306,988.9,6.8,-999.0,yes,yes,no,132756,BD2A3,AOML,Brazilian_NAVY,South
2016-01-10T03:00:00Z,1452394800,2016,3,0,10.125,10.124,-55.1125,-64.92139,988.2,8.7,-999.0,yes,yes,no,132756,BD2A3,AOML,Brazilian_NAVY,South
2016-01-10T04:00:28Z,1452398429,2016,4,0,10.167,10.155,-55.12944,-64.90167,987.8,5.9,-999.0,yes,yes,no,132756,BD2A3,AOML,Brazilian_NAVY,South
2016-01-10T04:59:31Z,1452401971,2016,5,0,10.208,10.201,-55.12667,-64.87667,987.3,5.75,-999.0,yes,yes,no,132756,BD2A3,AOML,Brazilian_NAVY,South
2016-01-10T06:00:00Z,1452405600,2016,6,0,10.25,10.269,-55.12,-64.82833,987.0,5.8,-999.0,yes,yes,no,132756,BD2A3,AOML,Brazilian_NAVY,South
2016-01-10T07:00:28Z,1452409229,2016,7,0,10.292,10.312,-55.10917,-64.79778,987.6,5.8,-999.0,yes,yes,no,132756,BD2A3,AOML,Brazilian_NAVY,South
2016-01-10T07:59:31Z,1452412771,2016,8,0,10.333,10.34,-55.09444,-64.79472,988.5,5.75,-999.0,yes,yes,no,132756,BD2A3,AOML,Brazilian_NAVY,South
2016-01-10T09:00:00Z,1452416400,2016,9,0,10.375,10.34,-55.09722,-64.79278,990.4,5.75,-999.0,yes,yes,no,132756,BD2A3,AOML,Brazilian_NAVY,South
2016-01-10T10:59:31Z,1452423571,2016,11,0,10.458,10.467,-55.0475,-64.76083,993.8,5.7,-999.0,yes,yes,no,132756,BD2A3,AOML,Brazilian_NAVY,South
2016-01-10T12:00:00Z,1452427200,2016,12,0,10.5,10.497,-55.04028,-64.76583,994.4,5.7,-999.0,yes,yes,no,132756,BD2A3,AOML,Brazilian_NAVY,South
2016-01-10T13:00:28Z,1452430829,2016,13,0,10.542,10.535,-55.03667,-64.77639,994.4,6.3,-999.0,yes,yes,no,132756,BD2A3,AOML,Brazilian_NAVY,South
2016-01-10T13:59:31Z,1452434371,2016,14,0,10.583,10.605,-55.05222,-64.7175,995.9,6.35,-999.0,yes,yes,no,132756,BD2A3,AOML,Brazilian_NAVY,South
2016-01-10T15:00:00Z,1452438000,2016,15,0,10.625,10.605,-55.0525,-64.71722,996.8,6.65,-999.0,yes,yes,no,132756,BD2A3,AOML,Brazilian_NAVY,South
2016-01-10T16:00:28Z,1452441629,2016,16,0,10.667,10.605,-55.0525,-64.71722,997.8,6.35,-999.0,yes,yes,no,132756,BD2A3,AOML,Brazilian_NAVY,South
2016-01-10T16:59:31Z,1452445171,2016,17,0,10.708,10.779,-55.08389,-64.5375,997.4,6.0,-999.0,yes,yes,no,132756,BD2A3,AOML,Brazilian_NAVY,South
2016-01-10T18:00:00Z,1452448800,2016,18,0,10.75,10.779,-55.08389,-64.5375,998.3,6.0,-999.0,yes,yes,no,132756,BD2A3,AOML,Brazilian_NAVY,South
2016-01-10T19:00:28Z,1452452429,2016,19,0,10.792,10.779,-55.08389,-64.5375,998.2,5.85,-999.0,yes,yes,no,132756,BD2A3,AOML,Brazilian_NAVY,South
2016-01-10T19:59:31Z,1452455971,2016,20,0,10.833,10.833,-55.07528,-64.47222,998.2,5.75,-999.0,yes,yes,no,132756,BD2A3,AOML,Brazilian_NAVY,South
2016-01-10T21:00:00Z,1452459600,2016,21,0,10.875,10.886,-55.06417,-64.44417,998.3,5.75,-999.0,yes,yes,no,132756,BD2A3,AOML,Brazilian_NAVY,South
2016-01-10T22:00:28Z,1452463229,2016,22,0,10.917,10.92,-55.03667,-64.43917,998.1,5.7,-999.0,yes,yes,no,132756,BD2A3,AOML,Brazilian_NAVY,South
2016-01-10T22:59:31Z,1452466771,2016,23,0,10.958,10.958,-55.02306,-64.41472,997.0,5.7,-999.0,yes,yes,no,132756,BD2A3,AOML,Brazilian_NAVY,South
2016-01-11T00:00:00Z,1452470400,2016,0,0,11.0,10.992,-55.01028,-64.40139,996.3,5.7,-999.0,yes,yes,no,132756,BD2A3,AOML,Brazilian_NAVY,South
2016-01-11T01:59:31Z,1452477571,2016,2,0,11.083,11.071,-55.01278,-64.35694,994.7,5.85,-999.0,yes,yes,no,132756,BD2A3,AOML,Brazilian_NAVY,South
2016-01-11T03:00:00Z,1452481200,2016,3,0,11.125,11.143,-55.02278,-64.31417,993.5,6.2,-999.0,yes,yes,no,132756,BD2A3,AOML,Brazilian_NAVY,South
2016-01-11T04:00:28Z,1452484829,2016,4,0,11.167,11.143,-55.02278,-64.31417,992.1,5.7,-999.0,yes,yes,no,132756,BD2A3,AOML,Brazilian_NAVY,South
2016-01-11T04:59:31Z,1452488371,2016,5,0,11.208,11.192,-55.01944,-64.27639,990.6,5.55,-999.0,yes,yes,no,132756,BD2A3,AOML,Brazilian_NAVY,South
2016-01-11T06:00:00Z,1452492000,2016,6,0,11.25,11.26,-55.01556,-64.22556,989.5,5.45,-999.0,yes,yes,no,132756,BD2A3,AOML,Brazilian_NAVY,South
2016-01-11T07:00:28Z,1452495629,2016,7,0,11.292,11.295,-55.00972,-64.19278,988.9,5.25,-999.0,yes,yes,no,132756,BD2A3,AOML,Brazilian_NAVY,South
2016-01-11T07:59:31Z,1452499171,2016,8,0,11.333,11.334,-55.00583,-64.15528,988.0,5.35,-999.0,yes,yes,no,132756,BD2A3,AOML,Brazilian_NAVY,South
2016-01-11T09:00:00Z,1452502800,2016,9,0,11.375,11.364,-55.00028,-64.13306,986.7,5.2,-999.0,yes,yes,no,132756,BD2A3,AOML,Brazilian_NAVY,South
2016-01-11T10:00:28Z,1452506429,2016,10,0,11.417,11.405,-54.99306,-64.10417,985.5,5.25,-999.0,yes,yes,no,132756,BD2A3,AOML,Brazilian_NAVY,South
2016-01-11T10:59:31Z,1452509971,2016,11,0,11.458,11.405,-54.99306,-64.10417,984.6,5.2,-999.0,yes,yes,no,132756,BD2A3,AOML,Brazilian_NAVY,South
2016-01-11T12:00:00Z,1452513600,2016,12,0,11.5,11.521,-54.97528,-63.99194,984.5,5.55,-999.0,yes,yes,no,132756,BD2A3,AOML,Brazilian_NAVY,South
2016-01-11T13:00:28Z,1452517229,2016,13,0,11.542,11.543,-54.98667,-63.98056,983.8,5.15,-999.0,yes,yes,no,132756,BD2A3,AOML,Brazilian_NAVY,South
2016-01-11T13:59:31Z,1452520771,2016,14,0,11.583,11.59,-54.96111,-63.92694,983.4,5.2,-999.0,yes,yes,no,132756,BD2A3,AOML,Brazilian_NAVY,South
2016-01-11T15:00:00Z,1452524400,2016,15,0,11.625,11.59,-54.96111,-63.92694,983.5,5.25,-999.0,yes,yes,no,132756,BD2A3,AOML,Brazilian_NAVY,South
2016-01-11T16:00:28Z,1452528029,2016,16,0,11.667,11.59,-54.96111,-63.92694,983.1,5.25,-999.0,yes,yes,no,132756,BD2A3,AOML,Brazilian_NAVY,South
2016-01-11T16:59:31Z,1452531571,2016,17,0,11.708,11.772,-54.90861,-63.77028,983.1,5.2,-999.0,yes,yes,no,132756,BD2A3,AOML,Brazilian_NAVY,South
2016-01-11T18:00:00Z,1452535200,2016,18,0,11.75,11.772,-54.90861,-63.77028,982.9,5.4,-999.0,yes,yes,no,132756,BD2A3,AOML,Brazilian_NAVY,South
2016-01-11T19:00:28Z,1452538829,2016,19,0,11.792,11.772,-54.90917,-63.77028,983.0,5.25,-999.0,yes,yes,no,132756,BD2A3,AOML,Brazilian_NAVY,South
2016-01-11T19:59:31Z,1452542371,2016,20,0,11.833,11.842,-54.88,-63.69972,983.4,5.2,-999.0,yes,yes,no,132756,BD2A3,AOML,Brazilian_NAVY,South
2016-01-11T21:00:00Z,1452546000,2016,21,0,11.875,11.87,-54.86389,-63.68778,983.5,5.2,-999.0,yes,yes,no,132756,BD2A3,AOML,Brazilian_NAVY,South
2016-01-11T22:00:28Z,1452549629,2016,22,0,11.917,11.915,-54.85333,-63.64778,983.5,6.1,-999.0,yes,yes,no,132756,BD2A3,AOML,Brazilian_NAVY,South
2016-01-11T22:59:31Z,1452553171,2016,23,0,11.958,11.983,-54.84583,-63.54778,983.7,5.3,-999.0,yes,yes,no,132756,BD2A3,AOML,Brazilian_NAVY,South
2016-01-12T00:00:00Z,1452556800,2016,0,0,12.0,12.007,-54.84361,-63.52722,984.0,5.6,-999.0,yes,yes,no,132756,BD2A3,AOML,Brazilian_NAVY,South
2016-01-12T01:00:28Z,1452560429,2016,1,0,12.042,12.053,-54.83306,-63.4925,984.8,5.4,-999.0,yes,yes,no,132756,BD2A3,AOML,Brazilian_NAVY,South
2016-01-12T01:59:31Z,1452563971,2016,2,0,12.083,12.059,-54.84056,-63.45528,984.9,5.25,-999.0,yes,yes,no,132756,BD2A3,AOML,Brazilian_NAVY,South
2016-01-12T03:00:00Z,1452567600,2016,3,0,12.125,12.129,-54.835,-63.38611,985.2,5.15,-999.0,yes,yes,no,132756,BD2A3,AOML,Brazilian_NAVY,South
2016-01-12T04:59:31Z,1452574771,2016,5,0,12.208,12.197,-54.83639,-63.34972,985.9,5.15,-999.0,yes,yes,no,132756,BD2A3,AOML,Brazilian_NAVY,South
2016-01-12T06:00:00Z,1452578400,2016,6,0,12.25,12.253,-54.81306,-63.2875,986.5,5.45,-999.0,yes,yes,no,132756,BD2A3,AOML,Brazilian_NAVY,South
2016-01-12T07:00:28Z,1452582029,2016,7,0,12.292,12.256,-54.81278,-63.28278,987.4,5.35,-999.0,yes,yes,no,132756,BD2A3,AOML,Brazilian_NAVY,South
2016-01-12T07:59:31Z,1452585571,2016,8,0,12.333,12.326,-54.77583,-63.21778,988.4,5.3,-999.0,yes,yes,no,132756,BD2A3,AOML,Brazilian_NAVY,South
2016-01-12T09:00:00Z,1452589200,2016,9,0,12.375,12.383,-54.71861,-63.20583,989.5,5.2,-999.0,yes,yes,no,132756,BD2A3,AOML,Brazilian_NAVY,South
2016-01-12T10:00:28Z,1452592829,2016,10,0,12.417,12.412,-54.68722,-63.21722,990.2,5.2,-999.0,yes,yes,no,132756,BD2A3,AOML,Brazilian_NAVY,South
2016-01-12T10:59:31Z,1452596371,2016,11,0,12.458,12.451,-54.65667,-63.24722,990.9,5.15,-999.0,yes,yes,no,132756,BD2A3,AOML,Brazilian_NAVY,South
2016-01-12T12:00:00Z,1452600000,2016,12,0,12.5,12.506,-54.60944,-63.27694,991.7,5.15,-999.0,yes,yes,no,132756,BD2A3,AOML,Brazilian_NAVY,South
2016-01-12T13:00:28Z,1452603629,2016,13,0,12.542,12.538,-54.60639,-63.28194,992.2,5.15,-999.0,yes,yes,no,132756,BD2A3,AOML,Brazilian_NAVY,South
2016-01-12T13:59:31Z,1452607171,2016,14,0,12.583,12.576,-54.61278,-63.29944,992.5,5.15,-999.0,yes,yes,no,132756,BD2A3,AOML,Brazilian_NAVY,South